Location: Burgwalden
(48.2830°N, 10.7576°E)
Time: 01:13:11
(UTC+00:00)

DMSP B5D2-2 - Pass Details

Date: 26 September 2023
Orbit: 787 x 805 km, 98.3° (Epoch: 30 November)

Event Time Altitude Azimuth Distance (km) Brightness Sun altitude
Rises 03:29:20 0° 164° (SSE) 3,288 7.3 -17.1°
Reaches altitude 10° 03:31:39 10° 165° (SSE) 2,365 6.5 -16.7°
Maximum altitude 03:36:53 89° 255° (WSW) 808 4.0 -15.9°
Drops below altitude 10° 03:42:12 10° 346° (NNW) 2,393 6.6 -15.0°
Sets 03:44:33 0° 346° (NNW) 3,330 7.3 -14.7°
